Flag for Pakistan Weather past 2 weeks in Karachi, Sindh, Pakistan

Now
95 °F

Clear.


Feels Like: 107 °F
Forecast: 85 / 95 °F
Wind: 17 mph from Southwest

Location: Karachi Airport

Current Time: May 30, 2015 at 1:28:51 PM

Latest Report: May 30, 2015 at 12:55 PM


Visibility: 4 mi

Pressure: 29.71 "Hg

Humidity: 53%

Dew point: 75 °F

Location of KarachiLocation

Historic Weather in Karachi — Graph

°F

Karachi temperature yesterday

Maximum temperature yesterday: 95 °F (at 12:55 PM)
Minimum temperature yesterday: 82 °F (at 4:55 AM)
Average temperature yesterday: 89 °F

Past Weeks' High & Low Weather Summary

 TemperatureHumidityPressure
High99 °F (May 15, 12:25 PM)100% (May 18, 6:30 PM)29.80 "Hg (May 18, 6:30 PM)
Low36 °F (May 18, 6:30 PM)27% (May 17, 9:25 AM)29.56 "Hg (May 17, 4:25 PM)
Average89 °F66%29.67 "Hg
* Reported May 15 12:25 PM — May 30 12:25 PM, Karachi, Weather by CustomWeather, © 2015

Note: Actual official high and low records may vary slightly from our data, if they occured in-between our weather recording intervals... More about our weather records

Advertising

Karachi weather history for previous 24 hours

 ConditionsComfort  
Time TempWeatherWind HumidityBarometerVisibility
12:25 PM
Sat, May 30
95 °FClear.16 mph53%29.71 "Hg4 mi
11:55 AM95 °FPassing clouds.14 mph53%29.74 "Hg4 mi
11:25 AM93 °FPassing clouds.12 mph53%29.74 "Hg4 mi
10:55 AM93 °FPassing clouds.14 mph53%29.74 "Hg4 mi
10:25 AM91 °FPassing clouds.10 mph59%29.74 "Hg4 mi
9:55 AM91 °FPassing clouds.10 mph59%29.74 "Hg4 mi
9:25 AM90 °FPassing clouds.12 mph63%29.74 "Hg4 mi
8:55 AM88 °FScattered clouds.14 mph66%29.74 "Hg4 mi
8:25 AM86 °FScattered clouds.13 mph70%29.74 "Hg4 mi
7:25 AM84 °FScattered clouds.13 mph79%29.74 "Hg4 mi
6:55 AM84 °FScattered clouds.9 mph79%29.71 "Hg4 mi
6:25 AM82 °FScattered clouds.13 mph79%29.71 "Hg4 mi
5:55 AM82 °FScattered clouds.12 mph79%29.71 "Hg4 mi
4:55 AM84 °FPassing clouds.12 mph74%29.68 "Hg4 mi
4:25 AM84 °FPassing clouds.14 mph74%29.68 "Hg4 mi
3:55 AM86 °FPassing clouds.14 mph70%29.68 "Hg4 mi
3:25 AM86 °FPassing clouds.14 mph70%29.68 "Hg4 mi
2:55 AM86 °FPassing clouds.14 mph70%29.71 "Hg4 mi
2:25 AM86 °FPassing clouds.14 mph70%29.71 "Hg4 mi
1:25 AM86 °FPassing clouds.12 mph70%29.71 "Hg4 mi
12:55 AM86 °FPassing clouds.12 mph70%29.71 "Hg4 mi
12:25 AM86 °FPassing clouds.12 mph66%29.74 "Hg4 mi
11:55 PM
Fri, May 29
86 °FPassing clouds.10 mph66%29.74 "Hg4 mi
11:25 PM86 °FPassing clouds.12 mph70%29.74 "Hg4 mi
10:55 PM86 °FPassing clouds.12 mph70%29.74 "Hg4 mi
10:25 PM86 °FPassing clouds.12 mph70%29.74 "Hg4 mi
9:55 PM86 °FPassing clouds.10 mph70%29.71 "Hg4 mi
9:25 PM86 °FPassing clouds.9 mph70%29.71 "Hg4 mi
8:25 PM86 °FPassing clouds.12 mph70%29.71 "Hg4 mi
7:55 PM86 °FPassing clouds.10 mph70%29.71 "Hg4 mi
7:25 PM88 °FPassing clouds.9 mph66%29.71 "Hg4 mi
6:55 PM88 °FPassing clouds.10 mph66%29.71 "Hg4 mi
6:25 PM90 °FPassing clouds.13 mph59%29.68 "Hg4 mi
5:55 PM90 °FPassing clouds.13 mph55%29.68 "Hg4 mi
5:25 PM91 °FPassing clouds.13 mph56%29.68 "Hg4 mi
4:55 PM93 °FPassing clouds.12 mph47%29.68 "Hg4 mi
4:25 PM95 °FPassing clouds.10 mph36%29.68 "Hg4 mi
3:55 PM95 °FPassing clouds.14 mph41%29.68 "Hg4 mi
3:25 PM95 °FClear.14 mph41%29.68 "Hg4 mi
2:55 PM95 °FClear.14 mph41%29.68 "Hg4 mi
2:25 PM95 °FClear.12 mph44%29.71 "Hg4 mi
1:55 PM95 °FClear.13 mph47%29.71 "Hg4 mi
1:25 PM95 °FClear.12 mph47%29.71 "Hg4 mi
Weather by CustomWeather, © 2015

See weather overviewHow to use our weather pages